Date,TemperatureHighF,TemperatureAvgF,TemperatureLowF,DewpointHighF,DewpointAvgF,DewpointLowF,HumidityHigh,HumidityAvg,HumidityLow,PressureMaxIn,PressureMinIn,WindSpeedMaxMPH,WindSpeedAvgMPH,GustSpeedMaxMPH,PrecipitationSumIn
2013-4-1,35,23,7,-100,-100,-100,84,67,45,0.00,40.00,0,-999,0,0.00
2013-4-2,32,24,17,-100,-100,-100,83,64,40,0.00,40.00,0,-999,0,0.00
2013-4-3,37,28,18,-100,-100,-100,96,80,66,0.00,40.00,0,-999,0,0.00
2013-4-4,35,30,22,-100,-100,-100,90,66,47,0.00,40.00,0,-999,0,0.00
2013-4-5,33,24,14,-100,-100,-100,100,78,46,0.00,40.00,0,-999,0,0.00
2013-4-6,38,33,29,-100,-100,-100,100,90,76,0.00,40.00,0,-999,0,0.00
2013-4-7,36,30,23,-100,-100,-100,95,78,52,0.00,40.00,0,-999,0,0.00
2013-4-8,31,23,16,-100,-100,-100,85,65,53,0.00,40.00,0,-999,0,0.00
2013-4-9,34,24,11,-100,-100,-100,77,65,36,0.00,40.00,0,-999,0,0.00
2013-4-10,41,30,17,-100,-100,-100,89,59,36,0.00,40.00,0,-999,0,0.00
2013-4-11,40,33,24,-100,-100,-100,63,51,35,0.00,40.00,0,-999,0,0.00
2013-4-12,40,36,30,-100,-100,-100,90,64,44,0.00,40.00,0,-999,0,0.00
2013-4-13,42,34,25,-100,-100,-100,87,64,47,0.00,40.00,0,-999,0,0.00
2013-4-14,47,37,26,-100,-100,-100,74,55,36,0.00,40.00,0,-999,0,0.00
2013-4-15,38,34,32,-100,-100,-100,100,92,62,0.00,40.00,0,-999,0,0.00
2013-4-16,41,34,29,-100,-100,-100,96,68,46,0.00,40.00,0,-999,0,0.00
2013-4-17,42,35,30,-100,-100,-100,85,72,58,0.00,40.00,0,-999,0,0.00
2013-4-18,49,39,32,-100,-100,-100,94,58,34,0.00,40.00,0,-999,0,0.00
2013-4-19,42,34,27,-100,-100,-100,70,52,31,0.00,40.00,0,-999,0,0.00
2013-4-20,39,31,21,-100,-100,-100,72,56,33,0.00,40.00,0,-999,0,0.00
2013-4-21,40,34,31,-100,-100,-100,100,86,64,0.00,40.00,0,-999,0,0.00
2013-4-22,43,34,26,-100,-100,-100,87,63,42,0.00,40.00,0,-999,0,0.00
2013-4-23,43,34,22,-100,-100,-100,89,70,50,0.00,40.00,0,-999,0,0.00
2013-4-24,44,35,26,-100,-100,-100,92,79,59,0.00,40.00,0,-999,0,0.00
2013-4-25,43,36,26,-100,-100,-100,99,78,55,0.00,40.00,0,-999,0,0.00
2013-4-26,60,48,35,-100,-100,-100,95,72,46,0.00,40.00,0,-999,0,0.00
2013-4-27,60,51,44,-100,-100,-100,83,69,51,0.00,40.00,0,-999,0,0.00
2013-4-28,68,54,43,-100,-100,-100,86,57,25,0.00,40.00,0,-999,0,0.00
2013-4-29,54,45,33,-100,-100,-100,96,76,34,0.00,40.00,0,-999,0,0.00
2013-4-30,47,41,31,-100,-100,-100,100,97,90,0.00,40.00,0,-999,0,0.00